Location: Bronschhofen
(47.4788°N, 9.0353°E)
Time: 20:28:44
(UTC+00:00)

Gblst 52 Del rocket - Pass Details

Date: 20 May 2022
Orbit: 806 x 1364 km, 51.5° (Epoch: 06 July)

Event Time Altitude Azimuth Distance (km) Brightness Sun altitude
Exits shadow 01:29:58 13° 259° (W) 2,338 6.1 -16.6°
Maximum altitude 01:35:16 71° 343° (NNW) 880 4.4 -16.1°
Drops below altitude 10° 01:40:46 10° 68° (ENE) 2,392 7.4 -15.6°
Sets 01:43:12 0° 70° (ENE) 3,321 8.2 -15.3°
